Montross, Virginia, United States (22520)
Lat: 38.09N, Lon: 76.83W
Wx Zone: VAZ075
Local Info
Past Weather Observations for Friday, August 28, 2015

NOTE: This archive is for the closest National Weather Service station to Montross. Information may differ from the station used for current weather conditions.

Click here for Long-term Archive

Time Weather Temperature Dewpoint Humidity Pressure Winds Precip Visibility
23:52
Partly Cloudy
66°F / 19°C 61°F / 16°C 83% 30.21 in
(1023 mb)
S 4.6 mph
(S 7 kph)
- 10SM
22:52
Clear
68°F / 20°C 61°F / 16°C 78% 30.21 in
(1023 mb)
SSE 4.6 mph
(SSE 7 kph)
- 10SM
21:52
Partly Cloudy
66°F / 19°C 57°F / 14°C 73% 30.18 in
(1022 mb)
SSE 5.8 mph
(SSE 9 kph)
- 10SM
20:52
Partly Cloudy
64°F / 18°C 59°F / 15°C 83% 30.18 in
(1022 mb)
Calm - 10SM
19:52
Partly Cloudy
66°F / 19°C 59°F / 15°C 78% 30.18 in
(1022 mb)
S 4.6 mph
(S 7 kph)
- 10SM
18:52
Partly Cloudy
72°F / 22°C 59°F / 15°C 65% 30.15 in
(1021 mb)
S 3.5 mph
(S 6 kph)
- 10SM
17:52
Partly Cloudy
75°F / 24°C 57°F / 14°C 54% 30.15 in
(1021 mb)
SE 3.5 mph
(SE 6 kph)
- 10SM
16:52
Partly Cloudy
79°F / 26°C 57°F / 14°C 48% 30.15 in
(1021 mb)
Calm - 10SM
15:52
Partly Cloudy
79°F / 26°C 55°F / 13°C 45% 30.15 in
(1021 mb)
E 4.6 mph
(E 7 kph)
- 10SM
14:52
Partly Cloudy
79°F / 26°C 57°F / 14°C 48% 30.15 in
(1021 mb)
ESE 8.1 mph
(ESE 13 kph)
- 10SM
13:52
Partly Cloudy
81°F / 27°C 57°F / 14°C 45% 30.18 in
(1022 mb)
ENE 8.1 mph
(ENE 13 kph)
- 10SM
12:52
Partly Cloudy
81°F / 27°C 55°F / 13°C 42% 30.18 in
(1022 mb)
Calm - 10SM
11:52
Partly Cloudy
79°F / 26°C 57°F / 14°C 48% 30.21 in
(1023 mb)
NE 6.9 mph
(NE 11 kph)
- 10SM
10:52
Partly Cloudy
79°F / 26°C 55°F / 13°C 45% 30.21 in
(1023 mb)
NNE 6.9 mph
(NNE 11 kph)
- 10SM
09:52
Partly Cloudy
77°F / 25°C 59°F / 15°C 54% 30.21 in
(1023 mb)
NE 8.1 mph
(NE 13 kph)
- 10SM
08:52
Partly Cloudy
75°F / 24°C 57°F / 14°C 54% 30.21 in
(1023 mb)
NE 6.9 mph
(NE 11 kph)
- 10SM
07:52
Partly Cloudy
73°F / 23°C 61°F / 16°C 65% 30.18 in
(1022 mb)
Variable 5.8 mph
(Variable 9 kph)
- 10SM
06:52
Partly Cloudy
70°F / 21°C 63°F / 17°C 78% 30.18 in
(1022 mb)
NE 4.6 mph
(NE 7 kph)
- 10SM
05:52
Partly Cloudy
61°F / 16°C 57°F / 14°C 88% 30.15 in
(1021 mb)
NE 3.5 mph
(NE 6 kph)
- 10SM
04:52
Partly Cloudy
57°F / 14°C 57°F / 14°C 100% 30.15 in
(1021 mb)
SSW 3.5 mph
(SSW 6 kph)
- 10SM
03:52
Clear
59°F / 15°C 57°F / 14°C 94% 30.12 in
(1020 mb)
Calm - 10SM
02:52
Clear
59°F / 15°C 57°F / 14°C 94% 30.15 in
(1021 mb)
Calm - 10SM
01:52
Clear
61°F / 16°C 57°F / 14°C 88% 30.15 in
(1021 mb)
Calm - 10SM
00:52
Clear
61°F / 16°C 57°F / 14°C 88% 30.15 in
(1021 mb)
W 3.5 mph
(W 6 kph)
- 10SM
Time Weather Temperature Dewpoint Humidity Pressure Winds Precip Visibility


Weather for websites

WeatherForYou.com, LLC is not responsible for any damages or problems caused by this service. Current weather conditions are obtained from the closest station including government and personal stations which may have varying degrees of accuracy. Weather forecasts are derived from the NOAA NDFD. Like all things, this site belongs to Jesus Christ... He just trusts us to maintain it. If you have any questions or comments email webmaster@weatherforyou.com

Copyright © 2015, WeatherForYou.com LLC. All rights reserved.